Flag for France Weather past 2 weeks in Reims, France

Now
52 °F

Overcast.


Feels Like: 50 °F
Forecast: 47 / 70 °F
Wind: 6 mph from Southwest

Location: Chalons-Vatry

Current Time: Jul 29, 2015 at 7:44:45 AM

Latest Report: Jul 29, 2015 at 7:00 AM


Visibility: 4 mi

Pressure: 29.89 "Hg

Humidity: 94%

Dew point: 50 °F

Location of ReimsLocation

Historic Weather in Reims — Graph

°F

Reims temperature yesterday

Maximum temperature yesterday: 66 °F (at 12:00 AM)
Minimum temperature yesterday: 55 °F (at 6:00 AM)
Average temperature yesterday: 60 °F

Past Weeks' High & Low Weather Summary

 TemperatureHumidityPressure
High95 °F (Jul 16, 4:00 PM)100% (Jul 19, 7:30 AM)30.15 "Hg (Jul 19, 7:30 AM)
Low48 °F (Jul 26, 6:00 AM)22% (Jul 16, 4:00 PM)29.68 "Hg (Jul 24, 8:30 PM)
Average69 °F65%29.96 "Hg
* Reported Jul 14 6:00 AM — Jul 29 6:00 AM, Reims, Weather by CustomWeather, © 2015

Note: Actual official high and low records may vary slightly from our data, if they occured in-between our weather recording intervals... More about our weather records

Advertising

Reims weather history for previous 24 hours

 ConditionsComfort  
Time TempWeatherWind HumidityBarometerVisibility
6:00 AM
Wed, Jul 29
52 °FPassing clouds.6 mph100%29.89 "HgN/A
5:00 AM52 °FPartly cloudy.7 mph100%29.89 "Hg6 mi
4:30 AM52 °FDrizzle. Mostly cloudy.7 mph100%29.89 "HgN/A
4:00 AM52 °FDrizzle. Fog.9 mph100%29.89 "Hg3 mi
3:30 AM54 °FPartly cloudy.8 mph94%29.89 "Hg4 mi
3:00 AM54 °FMostly cloudy.9 mph94%29.89 "HgN/A
2:30 AM54 °FLight rain. Overcast.8 mph88%29.89 "Hg6 mi
2:00 AM54 °FOvercast.10 mph82%29.89 "HgN/A
1:30 AM55 °FMostly cloudy.9 mph77%29.89 "HgN/A
1:00 AM55 °FOvercast.10 mph77%29.92 "HgN/A
11:30 PM
Tue, Jul 28
55 °FClear.8 mph88%29.92 "Hg10 mi
11:00 PM55 °FSunny.8 mph88%29.92 "Hg10 mi
10:30 PM55 °FSunny.8 mph82%29.92 "Hg10 mi
10:00 PM57 °FSunny.8 mph77%29.92 "Hg10 mi
9:30 PM57 °FSunny.10 mph77%29.89 "Hg10 mi
9:00 PM57 °FSunny.10 mph77%29.89 "Hg10 mi
8:30 PM57 °FSunny.13 mph77%29.92 "Hg10 mi
8:00 PM59 °FDrizzle. Partly sunny.9 mph72%29.89 "HgN/A
7:30 PM59 °FSunny.12 mph72%29.89 "Hg10 mi
7:00 PM61 °FLight rain. Clear.16 mph68%29.89 "HgN/A
6:30 PM63 °FSunny.16 mph56%29.89 "Hg10 mi
6:00 PM64 °FSunny.15 mph56%29.89 "Hg10 mi
5:30 PM64 °FMore clouds than sun.15 mph56%29.86 "HgN/A
5:00 PM63 °FSunny.16 mph56%29.86 "Hg10 mi
4:30 PM64 °FScattered clouds.15 mph52%29.86 "HgN/A
4:00 PM64 °FSunny.16 mph52%29.86 "Hg10 mi
3:30 PM64 °FBroken clouds.17 mph52%29.89 "HgN/A
3:00 PM66 °FBroken clouds.21 mph49%29.89 "HgN/A
2:30 PM66 °FPartly sunny.16 mph49%29.89 "HgN/A
2:00 PM66 °FPartly sunny.17 mph49%29.86 "HgN/A
1:30 PM64 °FBroken clouds.20 mph52%29.89 "HgN/A
1:00 PM64 °FCloudy.18 mph52%29.89 "HgN/A
12:30 PM64 °FMore clouds than sun.16 mph52%29.89 "HgN/A
12:00 PM64 °FBroken clouds.17 mph56%29.89 "HgN/A
11:30 AM63 °FPartly sunny.15 mph59%29.89 "HgN/A
11:00 AM63 °FPartly sunny.18 mph56%29.86 "HgN/A
10:30 AM63 °FCloudy.18 mph59%29.89 "HgN/A
10:00 AM61 °FBroken clouds.18 mph59%29.89 "HgN/A
9:30 AM61 °FPartly sunny.21 mph63%29.89 "HgN/A
9:00 AM59 °FSunny.20 mph63%29.89 "Hg10 mi
8:30 AM59 °FSunny.14 mph63%29.89 "Hg10 mi
8:00 AM57 °FClear.14 mph72%29.89 "Hg10 mi
7:30 AM57 °FClear.14 mph67%29.86 "Hg10 mi
7:00 AM57 °FClear.13 mph67%29.86 "Hg10 mi
Weather by CustomWeather, © 2015

See weather overviewHow to use our weather pages